Time,TemperatureF,DewpointF,PressureIn,WindDirection,WindDirectionDegrees,WindSpeedMPH,WindSpeedGustMPH,Humidity,HourlyPrecipIn,Conditions,Clouds,dailyrainin,SoftwareType,DateUTC
2013-05-17 00:00:00,65.6,30.8,29.87,East,100,0.0,8.0,27,0.00,,SKC,0.00,VWS V14.01,2013-05-17 05:00:00,
2013-05-17 00:01:00,65.6,30.8,29.87,ENE,76,5.0,5.0,27,0.00,,SKC,0.00,VWS V14.01,2013-05-17 05:01:00,
2013-05-17 00:06:00,65.5,30.7,29.87,ENE,77,0.0,7.0,27,0.00,,SKC,0.00,VWS V14.01,2013-05-17 05:06:00,
2013-05-17 00:11:00,65.4,30.6,29.87,East,98,4.0,8.0,27,0.00,,SKC,0.00,VWS V14.01,2013-05-17 05:11:00,
2013-05-17 00:16:00,65.4,30.6,29.87,East,79,6.0,9.0,27,0.00,,SKC,0.00,VWS V14.01,2013-05-17 05:16:00,
2013-05-17 00:21:00,65.4,29.6,29.87,East,91,0.0,9.0,26,0.00,,SKC,0.00,VWS V14.01,2013-05-17 05:21:00,
2013-05-17 00:26:00,65.4,30.6,29.87,East,88,4.0,9.0,27,0.00,,SKC,0.00,VWS V14.01,2013-05-17 05:26:00,
2013-05-17 00:30:00,65.3,29.6,29.87,East,79,1.0,9.0,26,0.00,,SKC,0.00,VWS V14.01,2013-05-17 05:30:00,
2013-05-17 00:31:00,65.3,29.6,29.87,East,88,0.0,5.0,26,0.00,,SKC,0.00,VWS V14.01,2013-05-17 05:31:00,
2013-05-17 00:36:00,65.3,29.6,29.87,East,82,0.0,9.0,26,0.00,,SKC,0.00,VWS V14.01,2013-05-17 05:36:00,
2013-05-17 00:41:00,65.4,28.7,29.88,ENE,76,2.0,9.0,25,0.00,,SKC,0.00,VWS V14.01,2013-05-17 05:41:00,
2013-05-17 00:46:00,65.3,28.6,29.88,East,84,2.0,9.0,25,0.00,,SKC,0.00,VWS V14.01,2013-05-17 05:46:00,
2013-05-17 00:51:00,65.3,28.6,29.88,East,98,4.0,9.0,25,0.00,,SKC,0.00,VWS V14.01,2013-05-17 05:51:00,
2013-05-17 00:56:00,65.3,28.6,29.88,ESE,105,2.0,9.0,25,0.00,,SKC,0.00,VWS V14.01,2013-05-17 05:56:00,
2013-05-17 01:00:00,65.2,28.5,29.88,East,98,7.0,9.0,25,0.00,,SKC,0.00,VWS V14.01,2013-05-17 06:00:00,
2013-05-17 01:01:00,65.2,30.4,29.87,East,88,2.0,7.0,27,0.00,,SKC,0.00,VWS V14.01,2013-05-17 06:01:00,
2013-05-17 01:06:00,64.9,31.9,29.87,East,81,0.0,7.0,29,0.00,,SKC,0.00,VWS V14.01,2013-05-17 06:06:00,
2013-05-17 01:11:00,64.6,31.6,29.87,NE,51,0.0,8.0,29,0.00,,SKC,0.00,VWS V14.01,2013-05-17 06:11:00,
2013-05-17 01:16:00,64.0,32.8,29.87,SE,131,4.0,8.0,31,0.00,,SKC,0.00,VWS V14.01,2013-05-17 06:16:00,
2013-05-17 01:21:00,63.6,31.6,29.87,East,85,5.0,8.0,30,0.00,,SKC,0.00,VWS V14.01,2013-05-17 06:21:00,
2013-05-17 01:26:00,63.6,30.8,29.86,East,99,0.0,8.0,29,0.00,,SKC,0.00,VWS V14.01,2013-05-17 06:26:00,
2013-05-17 01:30:00,63.6,31.6,29.87,East,79,1.0,8.0,30,0.00,,SKC,0.00,VWS V14.01,2013-05-17 06:30:00,
2013-05-17 01:31:00,63.6,31.6,29.87,East,89,0.0,3.0,30,0.00,,SKC,0.00,VWS V14.01,2013-05-17 06:31:00,
2013-05-17 01:36:00,63.5,31.5,29.87,ESE,103,2.0,5.0,30,0.00,,SKC,0.00,VWS V14.01,2013-05-17 06:36:00,
2013-05-17 01:41:00,63.4,32.3,29.87,ESE,102,0.0,5.0,31,0.00,,SKC,0.00,VWS V14.01,2013-05-17 06:41:00,
2013-05-17 01:46:00,63.2,31.3,29.87,ESE,102,0.0,5.0,30,0.00,,SKC,0.00,VWS V14.01,2013-05-17 06:46:00,
2013-05-17 01:51:00,63.0,31.1,29.87,ESE,102,0.0,5.0,30,0.00,,SKC,0.00,VWS V14.01,2013-05-17 06:51:00,
2013-05-17 01:56:00,62.9,31.0,29.87,ESE,102,0.0,5.0,30,0.00,,SKC,0.00,VWS V14.01,2013-05-17 06:56:00,
2013-05-17 02:00:00,62.9,31.0,29.87,ESE,102,0.0,5.0,30,0.00,,SKC,0.00,VWS V14.01,2013-05-17 07:00:00,
2013-05-17 02:01:00,62.9,31.8,29.87,ENE,72,0.0,2.0,31,0.00,,SKC,0.00,VWS V14.01,2013-05-17 07:01:00,
2013-05-17 02:06:00,62.8,31.7,29.87,ENE,72,0.0,2.0,31,0.00,,SKC,0.00,VWS V14.01,2013-05-17 07:06:00,
2013-05-17 02:11:00,62.7,32.4,29.87,East,88,0.0,5.0,32,0.00,,SKC,0.00,VWS V14.01,2013-05-17 07:11:00,
2013-05-17 02:16:00,62.7,32.4,29.87,East,84,0.0,5.0,32,0.00,,SKC,0.00,VWS V14.01,2013-05-17 07:16:00,
2013-05-17 02:21:00,62.6,31.6,29.87,East,84,0.0,5.0,31,0.00,,SKC,0.00,VWS V14.01,2013-05-17 07:21:00,
2013-05-17 02:26:00,62.5,32.3,29.87,East,84,0.0,5.0,32,0.00,,SKC,0.00,VWS V14.01,2013-05-17 07:26:00,
2013-05-17 02:30:00,62.5,31.5,29.87,East,84,0.0,5.0,31,0.00,,SKC,0.00,VWS V14.01,2013-05-17 07:30:00,
2013-05-17 02:31:00,62.5,31.5,29.87,East,84,0.0,1.0,31,0.00,,SKC,0.00,VWS V14.01,2013-05-17 07:31:00,
2013-05-17 02:36:00,62.4,31.4,29.86,East,84,0.0,2.0,31,0.00,,SKC,0.00,VWS V14.01,2013-05-17 07:36:00,
2013-05-17 02:41:00,62.3,32.1,29.86,East,84,0.0,2.0,32,0.00,,SKC,0.00,VWS V14.01,2013-05-17 07:41:00,
2013-05-17 02:46:00,62.0,31.8,29.87,East,84,0.0,2.0,32,0.00,,SKC,0.00,VWS V14.01,2013-05-17 07:46:00,
2013-05-17 02:51:00,61.7,32.3,29.87,East,84,0.0,2.0,33,0.00,,SKC,0.00,VWS V14.01,2013-05-17 07:51:00,
2013-05-17 02:56:00,61.5,32.9,29.87,East,84,0.0,2.0,34,0.00,,SKC,0.00,VWS V14.01,2013-05-17 07:56:00,
2013-05-17 03:00:00,61.4,32.8,29.87,ENE,71,0.0,2.0,34,0.00,,SKC,0.00,VWS V14.01,2013-05-17 08:00:00,
2013-05-17 03:01:00,61.3,33.4,29.87,ENE,71,0.0,0.0,35,0.00,,SKC,0.00,VWS V14.01,2013-05-17 08:01:00,
2013-05-17 03:06:00,61.1,32.5,29.87,NE,53,0.0,3.0,34,0.00,,SKC,0.00,VWS V14.01,2013-05-17 08:06:00,
2013-05-17 03:11:00,60.8,32.3,29.87,East,80,0.0,5.0,34,0.00,,SKC,0.00,VWS V14.01,2013-05-17 08:11:00,
2013-05-17 03:16:00,60.7,32.9,29.87,ENE,69,0.0,5.0,35,0.00,,SKC,0.00,VWS V14.01,2013-05-17 08:16:00,
2013-05-17 03:21:00,60.5,33.4,29.87,North,10,0.0,5.0,36,0.00,,SKC,0.00,VWS V14.01,2013-05-17 08:21:00,
2013-05-17 03:26:00,60.4,32.7,29.86,NNE,31,0.0,5.0,35,0.00,,SKC,0.00,VWS V14.01,2013-05-17 08:26:00,
2013-05-17 03:30:00,60.3,33.3,29.86,NNE,31,0.0,5.0,36,0.00,,SKC,0.00,VWS V14.01,2013-05-17 08:30:00,
2013-05-17 03:31:00,60.2,33.2,29.86,North,5,1.0,2.0,36,0.00,,SKC,0.00,VWS V14.01,2013-05-17 08:31:00,
2013-05-17 03:36:00,60.1,33.1,29.86,East,99,0.0,4.0,36,0.00,,SKC,0.00,VWS V14.01,2013-05-17 08:36:00,
2013-05-17 03:41:00,60.0,33.0,29.86,ENE,60,0.0,4.0,36,0.00,,SKC,0.00,VWS V14.01,2013-05-17 08:41:00,
2013-05-17 03:46:00,60.0,33.7,29.86,East,92,0.0,4.0,37,0.00,,SKC,0.00,VWS V14.01,2013-05-17 08:46:00,
2013-05-17 03:51:00,59.9,33.6,29.86,East,79,0.0,4.0,37,0.00,,SKC,0.00,VWS V14.01,2013-05-17 08:51:00,
2013-05-17 03:56:00,59.8,33.5,29.86,ENE,72,0.0,4.0,37,0.00,,SKC,0.00,VWS V14.01,2013-05-17 08:56:00,
2013-05-17 04:00:00,59.8,33.5,29.86,NE,43,0.0,4.0,37,0.00,,SKC,0.00,VWS V14.01,2013-05-17 09:00:00,
2013-05-17 04:01:00,59.8,34.2,29.86,NE,43,0.0,0.0,38,0.00,,SKC,0.00,VWS V14.01,2013-05-17 09:01:00,
2013-05-17 04:06:00,59.7,34.1,29.86,NNW,335,0.0,2.0,38,0.00,,SKC,0.00,VWS V14.01,2013-05-17 09:06:00,
2013-05-17 04:11:00,59.6,34.0,29.86,NNE,25,0.0,2.0,38,0.00,,SKC,0.00,VWS V14.01,2013-05-17 09:11:00,
2013-05-17 04:16:00,59.5,33.9,29.86,East,86,0.0,3.0,38,0.00,,SKC,0.00,VWS V14.01,2013-05-17 09:16:00,
2013-05-17 04:21:00,59.5,33.9,29.86,NNE,29,1.0,4.0,38,0.00,,SKC,0.00,VWS V14.01,2013-05-17 09:21:00,
2013-05-17 04:26:00,59.5,33.9,29.86,ENE,63,0.0,4.0,38,0.00,,SKC,0.00,VWS V14.01,2013-05-17 09:26:00,
2013-05-17 04:30:00,59.4,34.5,29.86,ESE,111,0.0,4.0,39,0.00,,SKC,0.00,VWS V14.01,2013-05-17 09:30:00,
2013-05-17 04:31:00,59.4,34.5,29.86,NE,50,0.0,3.0,39,0.00,,SKC,0.00,VWS V14.01,2013-05-17 09:31:00,
2013-05-17 04:36:00,59.3,34.4,29.86,North,360,0.0,4.0,39,0.00,,SKC,0.00,VWS V14.01,2013-05-17 09:36:00,
2013-05-17 04:41:00,59.2,34.9,29.87,ENE,78,0.0,4.0,40,0.00,,SKC,0.00,VWS V14.01,2013-05-17 09:41:00,
2013-05-17 04:46:00,59.1,35.4,29.87,East,99,0.0,4.0,41,0.00,,SKC,0.00,VWS V14.01,2013-05-17 09:46:00,
2013-05-17 04:51:00,59.0,35.3,29.88,East,99,0.0,4.0,41,0.00,,SKC,0.00,VWS V14.01,2013-05-17 09:51:00,
2013-05-17 04:56:00,58.9,35.3,29.88,East,99,0.0,4.0,41,0.00,,SKC,0.00,VWS V14.01,2013-05-17 09:56:00,
2013-05-17 05:00:00,58.9,35.3,29.88,ENE,78,0.0,4.0,41,0.00,,SKC,0.00,VWS V14.01,2013-05-17 10:00:00,
2013-05-17 05:01:00,58.8,35.2,29.88,East,79,0.0,1.0,41,0.00,,SKC,0.00,VWS V14.01,2013-05-17 10:01:00,
2013-05-17 05:06:00,58.7,35.7,29.89,East,98,4.0,5.0,42,0.00,,SKC,0.00,VWS V14.01,2013-05-17 10:06:00,
2013-05-17 05:11:00,58.5,36.1,29.90,East,89,2.0,6.0,43,0.00,,SKC,0.00,VWS V14.01,2013-05-17 10:11:00,
2013-05-17 05:16:00,58.4,36.6,29.90,East,88,0.0,6.0,44,0.00,,SKC,0.00,VWS V14.01,2013-05-17 10:16:00,
2013-05-17 05:21:00,58.2,37.0,29.89,East,89,0.0,6.0,45,0.00,,SKC,0.00,VWS V14.01,2013-05-17 10:21:00,
2013-05-17 05:26:00,58.0,37.4,29.90,East,89,0.0,6.0,46,0.00,,SKC,0.00,VWS V14.01,2013-05-17 10:26:00,
2013-05-17 05:30:00,58.0,36.8,29.90,East,89,0.0,6.0,45,0.00,,SKC,0.00,VWS V14.01,2013-05-17 10:30:00,
2013-05-17 05:31:00,57.9,37.8,29.90,East,89,0.0,0.0,47,0.00,,SKC,0.00,VWS V14.01,2013-05-17 10:31:00,
2013-05-17 05:36:00,57.8,37.2,29.90,East,84,0.0,2.0,46,0.00,,SKC,0.00,VWS V14.01,2013-05-17 10:36:00,
2013-05-17 05:41:00,57.8,37.7,29.90,East,84,0.0,2.0,47,0.00,,SKC,0.00,VWS V14.01,2013-05-17 10:41:00,
2013-05-17 05:46:00,57.8,37.7,29.90,East,81,0.0,2.0,47,0.00,,SKC,0.00,VWS V14.01,2013-05-17 10:46:00,
2013-05-17 05:51:00,57.8,38.3,29.90,East,81,0.0,2.0,48,0.00,,SKC,0.00,VWS V14.01,2013-05-17 10:51:00,
2013-05-17 05:56:00,58.0,41.5,29.90,NE,54,1.0,7.0,54,0.00,,SKC,0.00,VWS V14.01,2013-05-17 10:56:00,
2013-05-17 06:00:00,58.3,40.3,29.90,ENE,70,1.0,8.0,51,0.00,,SKC,0.00,VWS V14.01,2013-05-17 11:00:00,
2013-05-17 06:01:00,58.4,40.9,29.90,East,92,0.0,6.0,52,0.00,,SKC,0.00,VWS V14.01,2013-05-17 11:01:00,
2013-05-17 06:06:00,58.5,42.9,29.90,ESE,110,0.0,10.0,56,0.00,,SKC,0.00,VWS V14.01,2013-05-17 11:06:00,
2013-05-17 06:11:00,59.1,44.3,29.90,East,90,9.0,13.0,58,0.00,,SKC,0.00,VWS V14.01,2013-05-17 11:11:00,
2013-05-17 06:16:00,59.4,44.6,29.91,ENE,67,1.0,13.0,58,0.00,,SKC,0.00,VWS V14.01,2013-05-17 11:16:00,
2013-05-17 06:21:00,59.4,44.6,29.90,East,88,3.0,13.0,58,0.00,,SKC,0.00,VWS V14.01,2013-05-17 11:21:00,
2013-05-17 06:26:00,59.4,44.6,29.90,East,84,3.0,13.0,58,0.00,,SKC,0.00,VWS V14.01,2013-05-17 11:26:00,
2013-05-17 06:30:00,59.3,44.5,29.91,East,93,4.0,13.0,58,0.00,,SKC,0.00,VWS V14.01,2013-05-17 11:30:00,
2013-05-17 06:31:00,59.3,45.0,29.90,East,97,4.0,6.0,59,0.00,,SKC,0.00,VWS V14.01,2013-05-17 11:31:00,
2013-05-17 06:36:00,59.2,44.9,29.90,ESE,115,2.0,11.0,59,0.00,,SKC,0.00,VWS V14.01,2013-05-17 11:36:00,
2013-05-17 06:41:00,59.1,44.8,29.91,East,94,1.0,11.0,59,0.00,,SKC,0.00,VWS V14.01,2013-05-17 11:41:00,
2013-05-17 06:46:00,59.1,45.2,29.90,East,97,6.0,11.0,60,0.00,,SKC,0.00,VWS V14.01,2013-05-17 11:46:00,
2013-05-17 06:51:00,59.1,45.2,29.90,ESE,104,6.0,12.0,60,0.00,,SKC,0.00,VWS V14.01,2013-05-17 11:51:00,
2013-05-17 06:56:00,59.0,45.2,29.91,East,81,6.0,12.0,60,0.00,,SKC,0.00,VWS V14.01,2013-05-17 11:56:00,
2013-05-17 07:00:00,59.0,46.0,29.91,East,86,6.0,12.0,62,0.00,,SKC,0.00,VWS V14.01,2013-05-17 12:00:00,
2013-05-17 07:01:00,58.9,45.9,29.90,East,80,8.0,8.0,62,0.00,,SKC,0.00,VWS V14.01,2013-05-17 12:01:00,
2013-05-17 07:06:00,58.9,45.5,29.90,East,90,8.0,12.0,61,0.00,,SKC,0.00,VWS V14.01,2013-05-17 12:06:00,
2013-05-17 07:11:00,58.7,45.7,29.90,ENE,78,10.0,12.0,62,0.00,,SKC,0.00,VWS V14.01,2013-05-17 12:11:00,
2013-05-17 07:16:00,58.6,45.6,29.90,East,92,6.0,12.0,62,0.00,,SKC,0.00,VWS V14.01,2013-05-17 12:16:00,
2013-05-17 07:21:00,58.6,45.6,29.91,ESE,104,4.0,13.0,62,0.00,,SKC,0.00,VWS V14.01,2013-05-17 12:21:00,
2013-05-17 07:26:00,58.6,45.2,29.91,SE,128,6.0,13.0,61,0.00,,SKC,0.00,VWS V14.01,2013-05-17 12:26:00,
2013-05-17 07:30:00,58.6,45.6,29.91,ESE,114,6.0,13.0,62,0.00,,SKC,0.00,VWS V14.01,2013-05-17 12:30:00,
2013-05-17 07:31:00,58.6,45.2,29.91,ESE,115,0.0,7.0,61,0.00,,SKC,0.00,VWS V14.01,2013-05-17 12:31:00,
2013-05-17 07:36:00,58.6,45.2,29.92,East,94,9.0,13.0,61,0.00,,SKC,0.00,VWS V14.01,2013-05-17 12:36:00,
2013-05-17 07:41:00,58.5,45.1,29.92,East,95,4.0,13.0,61,0.00,,SKC,0.00,VWS V14.01,2013-05-17 12:41:00,
2013-05-17 07:46:00,58.5,44.7,29.92,East,101,7.0,13.0,60,0.00,,SKC,0.00,VWS V14.01,2013-05-17 12:46:00,
2013-05-17 07:51:00,58.4,45.0,29.92,East,93,5.0,13.0,61,0.00,,SKC,0.00,VWS V14.01,2013-05-17 12:51:00,
2013-05-17 07:56:00,58.5,45.1,29.92,SE,132,7.0,13.0,61,0.00,,SKC,0.00,VWS V14.01,2013-05-17 12:56:00,
2013-05-17 08:00:00,58.5,45.1,29.91,SE,126,9.0,13.0,61,0.00,,SKC,0.00,VWS V14.01,2013-05-17 13:00:00,
2013-05-17 08:01:00,58.4,44.6,29.91,East,88,5.0,11.0,60,0.00,,SKC,0.00,VWS V14.01,2013-05-17 13:01:00,
2013-05-17 08:06:00,58.5,44.7,29.92,ESE,102,4.0,13.0,60,0.00,,SKC,0.00,VWS V14.01,2013-05-17 13:06:00,
2013-05-17 08:11:00,58.5,44.7,29.92,ENE,77,12.0,13.0,60,0.00,,SKC,0.00,VWS V14.01,2013-05-17 13:11:00,
2013-05-17 08:16:00,58.5,44.7,29.92,ENE,71,5.0,14.0,60,0.00,,SKC,0.00,VWS V14.01,2013-05-17 13:16:00,
2013-05-17 08:21:00,58.6,44.8,29.92,SE,136,8.0,14.0,60,0.00,,SKC,0.00,VWS V14.01,2013-05-17 13:21:00,
2013-05-17 08:26:00,58.5,44.7,29.92,ESE,103,6.0,14.0,60,0.00,,SKC,0.00,VWS V14.01,2013-05-17 13:26:00,
2013-05-17 08:30:00,58.6,44.8,29.92,ESE,102,8.0,14.0,60,0.00,,SKC,0.00,VWS V14.01,2013-05-17 13:30:00,
2013-05-17 08:31:00,58.6,44.3,29.92,East,82,2.0,13.0,59,0.00,,SKC,0.00,VWS V14.01,2013-05-17 13:31:00,
2013-05-17 08:36:00,58.7,44.4,29.92,East,87,6.0,13.0,59,0.00,,SKC,0.00,VWS V14.01,2013-05-17 13:36:00,
2013-05-17 08:41:00,58.9,44.6,29.92,ESE,118,8.0,13.0,59,0.00,,SKC,0.00,VWS V14.01,2013-05-17 13:41:00,
2013-05-17 08:46:00,59.1,45.2,29.92,East,94,9.0,13.0,60,0.00,,SKC,0.00,VWS V14.01,2013-05-17 13:46:00,
2013-05-17 08:51:00,59.4,45.1,29.92,East,86,5.0,13.0,59,0.00,,SKC,0.00,VWS V14.01,2013-05-17 13:51:00,
2013-05-17 08:56:00,59.6,44.8,29.92,East,99,5.0,13.0,58,0.00,,SKC,0.00,VWS V14.01,2013-05-17 13:56:00,
2013-05-17 09:00:00,59.5,44.3,29.92,East,96,4.0,13.0,57,0.00,,SKC,0.00,VWS V14.01,2013-05-17 14:00:00,
2013-05-17 09:01:00,59.5,44.7,29.92,East,84,0.0,7.0,58,0.00,,SKC,0.00,VWS V14.01,2013-05-17 14:01:00,
2013-05-17 09:06:00,59.5,45.2,29.92,East,96,8.0,12.0,59,0.00,,SKC,0.00,VWS V14.01,2013-05-17 14:06:00,
2013-05-17 09:11:00,59.5,44.7,29.92,SE,128,6.0,13.0,58,0.00,,SKC,0.00,VWS V14.01,2013-05-17 14:11:00,
2013-05-17 09:16:00,59.3,44.5,29.93,ESE,103,9.0,13.0,58,0.00,,SKC,0.00,VWS V14.01,2013-05-17 14:16:00,
2013-05-17 09:21:00,59.6,45.3,29.93,ESE,123,9.0,13.0,59,0.00,,SKC,0.00,VWS V14.01,2013-05-17 14:21:00,
2013-05-17 09:26:00,59.7,45.4,29.93,East,95,2.0,13.0,59,0.00,,SKC,0.00,VWS V14.01,2013-05-17 14:26:00,
2013-05-17 09:30:00,59.8,45.0,29.93,East,84,7.0,13.0,58,0.00,,SKC,0.00,VWS V14.01,2013-05-17 14:30:00,
2013-05-17 09:31:00,59.9,45.1,29.93,East,82,5.0,8.0,58,0.00,,SKC,0.00,VWS V14.01,2013-05-17 14:31:00,
2013-05-17 09:36:00,59.9,44.7,29.93,East,92,7.0,12.0,57,0.00,,SKC,0.00,VWS V14.01,2013-05-17 14:36:00,
2013-05-17 09:41:00,60.0,45.2,29.93,East,87,4.0,12.0,58,0.00,,SKC,0.00,VWS V14.01,2013-05-17 14:41:00,
2013-05-17 09:46:00,60.1,44.8,29.93,East,101,4.0,12.0,57,0.00,,SKC,0.00,VWS V14.01,2013-05-17 14:46:00,
2013-05-17 09:51:00,60.1,44.8,29.93,ENE,78,2.0,12.0,57,0.00,,SKC,0.00,VWS V14.01,2013-05-17 14:51:00,
2013-05-17 09:56:00,60.3,45.0,29.93,ENE,69,1.0,13.0,57,0.00,,SKC,0.00,VWS V14.01,2013-05-17 14:56:00,
2013-05-17 10:00:00,60.6,45.3,29.93,ENE,76,8.0,13.0,57,0.00,,SKC,0.00,VWS V14.01,2013-05-17 15:00:00,
2013-05-17 10:01:00,60.7,44.9,29.93,East,90,0.0,8.0,56,0.00,,SKC,0.00,VWS V14.01,2013-05-17 15:01:00,
2013-05-17 10:06:00,60.7,44.9,29.93,East,92,7.0,12.0,56,0.00,,SKC,0.00,VWS V14.01,2013-05-17 15:06:00,
2013-05-17 10:11:00,61.0,45.0,29.93,ENE,67,6.0,-999.0,57,-99.99,,,0.00,weatherlink.com 1.10,2013-05-17 15:11:00,
2013-05-17 10:15:00,61.1,45.3,29.93,ENE,75,6.0,12.0,56,0.00,,SKC,0.00,VWS V14.01,2013-05-17 15:15:00,
2013-05-17 10:20:00,60.7,45.8,29.93,East,81,10.0,13.0,58,0.00,,SKC,0.00,VWS V14.01,2013-05-17 15:20:00,
2013-05-17 10:25:00,60.6,46.2,29.93,East,94,8.0,13.0,59,0.00,,SKC,0.00,VWS V14.01,2013-05-17 15:25:00,
2013-05-17 10:30:00,60.7,46.3,29.93,ENE,76,4.0,8.0,59,0.00,,SKC,0.00,VWS V14.01,2013-05-17 15:30:00,
2013-05-17 10:35:00,60.8,46.4,29.93,East,99,6.0,10.0,59,0.00,,SKC,0.00,VWS V14.01,2013-05-17 15:35:00,
2013-05-17 10:40:00,61.1,46.7,29.92,East,91,7.0,12.0,59,0.00,,SKC,0.00,VWS V14.01,2013-05-17 15:40:00,
2013-05-17 10:45:00,61.3,46.4,29.93,East,98,7.0,18.0,58,0.00,,SKC,0.00,VWS V14.01,2013-05-17 15:45:00,
2013-05-17 10:51:00,61.6,47.2,29.92,ESE,122,12.0,18.0,59,0.00,,SKC,0.00,VWS V14.01,2013-05-17 15:51:00,
2013-05-17 10:55:00,61.8,47.3,29.92,East,92,11.0,18.0,59,0.00,,SKC,0.00,VWS V14.01,2013-05-17 15:55:00,
2013-05-17 11:00:00,61.9,47.0,29.92,ESE,103,9.0,12.0,58,0.00,,SKC,0.00,VWS V14.01,2013-05-17 16:00:00,
2013-05-17 11:05:00,62.1,47.2,29.93,ESE,113,8.0,13.0,58,0.00,,SKC,0.00,VWS V14.01,2013-05-17 16:05:00,
2013-05-17 11:10:00,62.2,47.7,29.93,ESE,116,9.0,13.0,59,0.00,,SKC,0.00,VWS V14.01,2013-05-17 16:10:00,
2013-05-17 11:15:00,62.4,47.9,29.92,ESE,105,11.0,13.0,59,0.00,,SKC,0.00,VWS V14.01,2013-05-17 16:15:00,
2013-05-17 11:20:00,62.4,48.3,29.93,ESE,123,15.0,18.0,60,0.00,,SKC,0.00,VWS V14.01,2013-05-17 16:20:00,
2013-05-17 11:25:00,62.0,48.0,29.93,East,89,8.0,18.0,60,0.00,,SKC,0.00,VWS V14.01,2013-05-17 16:25:00,
2013-05-17 11:30:00,61.9,48.3,29.93,East,92,6.0,8.0,61,0.00,,SKC,0.00,VWS V14.01,2013-05-17 16:30:00,
2013-05-17 11:35:00,62.3,48.2,29.93,East,83,8.0,14.0,60,0.00,,SKC,0.00,VWS V14.01,2013-05-17 16:35:00,
2013-05-17 11:40:00,62.7,48.2,29.93,ENE,77,3.0,14.0,59,0.00,,SKC,0.00,VWS V14.01,2013-05-17 16:40:00,
2013-05-17 11:45:00,62.8,48.7,29.93,ENE,76,10.0,15.0,60,0.00,,SKC,0.00,VWS V14.01,2013-05-17 16:45:00,
2013-05-17 11:50:00,62.6,49.0,29.93,ESE,120,8.0,23.0,61,0.00,,SKC,0.00,VWS V14.01,2013-05-17 16:50:00,
2013-05-17 11:55:00,62.5,49.3,29.93,East,85,7.0,23.0,62,0.00,,SKC,0.00,VWS V14.01,2013-05-17 16:55:00,
2013-05-17 12:00:00,62.6,49.0,29.93,East,98,8.0,10.0,61,0.00,,SKC,0.00,VWS V14.01,2013-05-17 17:00:00,
2013-05-17 12:05:00,62.9,49.3,29.93,ESE,121,7.0,12.0,61,0.00,,SKC,0.00,VWS V14.01,2013-05-17 17:05:00,
2013-05-17 12:10:00,63.1,49.0,29.93,ESE,117,7.0,12.0,60,0.00,,SKC,0.00,VWS V14.01,2013-05-17 17:10:00,
2013-05-17 12:15:00,63.1,49.0,29.93,ESE,103,4.0,12.0,60,0.00,,SKC,0.00,VWS V14.01,2013-05-17 17:15:00,
2013-05-17 12:20:00,63.4,49.3,29.93,East,99,12.0,13.0,60,0.00,,SKC,0.00,VWS V14.01,2013-05-17 17:20:00,
2013-05-17 12:25:00,63.5,49.8,29.93,SE,127,5.0,14.0,61,0.00,,SKC,0.00,VWS V14.01,2013-05-17 17:25:00,
2013-05-17 12:30:00,63.6,49.5,29.93,East,90,8.0,11.0,60,0.00,,SKC,0.00,VWS V14.01,2013-05-17 17:30:00,
2013-05-17 12:35:00,63.3,49.2,29.93,SE,136,6.0,11.0,60,0.00,,SKC,0.00,VWS V14.01,2013-05-17 17:35:00,
2013-05-17 12:40:00,63.2,49.5,29.93,ESE,105,5.0,11.0,61,0.00,,SKC,0.00,VWS V14.01,2013-05-17 17:40:00,
2013-05-17 12:45:00,63.2,49.1,29.93,ESE,114,5.0,11.0,60,0.00,,SKC,0.00,VWS V14.01,2013-05-17 17:45:00,
2013-05-17 12:50:00,63.1,49.0,29.93,East,101,8.0,15.0,60,0.00,,SKC,0.00,VWS V14.01,2013-05-17 17:50:00,
2013-05-17 12:55:00,63.0,48.9,29.93,ESE,117,6.0,15.0,60,0.00,,SKC,0.00,VWS V14.01,2013-05-17 17:55:00,
2013-05-17 13:00:00,62.8,49.2,29.93,East,89,7.0,12.0,61,0.00,,SKC,0.00,VWS V14.01,2013-05-17 18:00:00,
2013-05-17 13:05:00,62.6,49.8,29.93,ESE,106,8.0,17.0,63,0.00,,SKC,0.00,VWS V14.01,2013-05-17 18:05:00,
2013-05-17 13:10:00,62.4,49.7,29.93,ESE,107,7.0,17.0,63,0.00,,SKC,0.00,VWS V14.01,2013-05-17 18:10:00,
2013-05-17 13:15:00,62.5,49.8,29.93,ESE,111,5.0,17.0,63,0.00,,SKC,0.00,VWS V14.01,2013-05-17 18:15:00,
2013-05-17 13:20:00,62.5,49.8,29.93,East,81,5.0,17.0,63,0.00,,SKC,0.00,VWS V14.01,2013-05-17 18:20:00,
2013-05-17 13:25:00,62.7,49.5,29.93,East,94,8.0,17.0,62,0.00,,SKC,0.00,VWS V14.01,2013-05-17 18:25:00,
2013-05-17 13:30:00,62.9,50.1,29.93,ESE,103,8.0,12.0,63,0.00,,SKC,0.00,VWS V14.01,2013-05-17 18:30:00,
2013-05-17 13:35:00,63.0,50.2,29.93,ESE,105,11.0,18.0,63,0.00,,SKC,0.00,VWS V14.01,2013-05-17 18:35:00,
2013-05-17 13:40:00,63.2,50.8,29.93,ESE,121,7.0,18.0,64,0.00,,SKC,0.00,VWS V14.01,2013-05-17 18:40:00,
2013-05-17 13:45:00,63.5,51.1,29.93,East,101,11.0,18.0,64,0.00,,SKC,0.00,VWS V14.01,2013-05-17 18:45:00,
2013-05-17 13:50:00,63.6,50.8,29.93,East,101,9.0,18.0,63,0.00,,SKC,0.00,VWS V14.01,2013-05-17 18:50:00,
2013-05-17 13:55:00,63.2,51.2,29.93,ESE,105,14.0,18.0,65,0.00,,SKC,0.00,VWS V14.01,2013-05-17 18:55:00,
2013-05-17 14:00:00,63.0,51.1,29.93,East,83,7.0,13.0,65,0.00,,SKC,0.00,VWS V14.01,2013-05-17 19:00:00,
2013-05-17 14:05:00,62.7,51.2,29.94,SE,138,9.0,14.0,66,0.00,,SKC,0.00,VWS V14.01,2013-05-17 19:05:00,
2013-05-17 14:10:00,62.6,51.5,29.93,East,93,8.0,14.0,67,0.00,,SKC,0.00,VWS V14.01,2013-05-17 19:10:00,
2013-05-17 14:15:00,62.4,51.3,29.93,East,83,7.0,14.0,67,0.00,,SKC,0.00,VWS V14.01,2013-05-17 19:15:00,
2013-05-17 14:20:00,62.3,51.6,29.94,East,101,9.0,14.0,68,0.00,,SKC,0.00,VWS V14.01,2013-05-17 19:20:00,
2013-05-17 14:25:00,62.1,51.4,29.94,East,90,8.0,14.0,68,0.00,,SKC,0.00,VWS V14.01,2013-05-17 19:25:00,
2013-05-17 14:30:00,62.0,51.3,29.94,ESE,103,8.0,8.0,68,0.00,,SKC,0.00,VWS V14.01,2013-05-17 19:30:00,
2013-05-17 14:35:00,62.0,51.3,29.94,ESE,102,9.0,13.0,68,0.00,,SKC,0.00,VWS V14.01,2013-05-17 19:35:00,
2013-05-17 14:40:00,61.9,51.2,29.94,ESE,104,5.0,15.0,68,0.00,,SKC,0.00,VWS V14.01,2013-05-17 19:40:00,
2013-05-17 14:45:00,61.8,51.5,29.93,ESE,114,5.0,15.0,69,0.00,,SKC,0.00,VWS V14.01,2013-05-17 19:45:00,
2013-05-17 14:50:00,61.9,51.2,29.93,ESE,102,7.0,15.0,68,0.00,,SKC,0.00,VWS V14.01,2013-05-17 19:50:00,
2013-05-17 14:55:00,61.9,51.6,29.93,SE,125,5.0,15.0,69,0.00,,SKC,0.00,VWS V14.01,2013-05-17 19:55:00,
2013-05-17 15:00:00,61.8,51.9,29.93,East,88,5.0,7.0,70,0.00,,SKC,0.00,VWS V14.01,2013-05-17 20:00:00,
2013-05-17 15:05:00,61.4,52.3,29.94,SE,126,7.0,10.0,72,0.00,,SKC,0.00,VWS V14.01,2013-05-17 20:05:00,
2013-05-17 15:10:00,60.9,52.6,29.93,ESE,117,13.0,13.0,74,0.00,,SKC,0.00,VWS V14.01,2013-05-17 20:10:00,
2013-05-17 15:15:00,60.7,53.1,29.93,SE,126,9.0,13.0,76,0.00,,SKC,0.00,VWS V14.01,2013-05-17 20:15:00,
2013-05-17 15:20:00,60.4,53.2,29.93,ESE,110,6.0,13.0,77,0.00,,SKC,0.00,VWS V14.01,2013-05-17 20:20:00,
2013-05-17 15:25:00,60.2,53.7,29.93,ESE,115,4.0,13.0,79,0.00,,SKC,0.00,VWS V14.01,2013-05-17 20:25:00,
2013-05-17 15:30:00,60.0,54.2,29.92,East,84,2.0,8.0,81,0.00,,SKC,0.00,VWS V14.01,2013-05-17 20:30:00,
2013-05-17 15:35:00,60.1,54.6,29.93,ESE,119,0.0,8.0,82,0.00,,SKC,0.00,VWS V14.01,2013-05-17 20:35:00,
2013-05-17 15:40:00,60.3,54.1,29.93,ENE,73,4.0,8.0,80,0.00,,SKC,0.00,VWS V14.01,2013-05-17 20:40:00,
2013-05-17 15:45:00,60.4,54.2,29.93,East,91,1.0,8.0,80,0.00,,SKC,0.00,VWS V14.01,2013-05-17 20:45:00,
2013-05-17 15:50:00,60.6,53.7,29.93,ENE,57,1.0,8.0,78,0.00,,SKC,0.00,VWS V14.01,2013-05-17 20:50:00,
2013-05-17 15:55:00,60.8,53.5,29.93,SE,126,9.0,12.0,77,0.00,,SKC,0.00,VWS V14.01,2013-05-17 20:55:00,
2013-05-17 16:00:00,60.9,53.7,29.93,SE,130,4.0,6.0,77,0.00,,SKC,0.00,VWS V14.01,2013-05-17 21:00:00,
2013-05-17 16:05:00,60.9,53.7,29.93,East,90,2.0,12.0,77,0.00,,SKC,0.00,VWS V14.01,2013-05-17 21:05:00,
2013-05-17 16:10:00,60.7,53.8,29.93,ESE,123,5.0,12.0,78,0.00,,SKC,0.00,VWS V14.01,2013-05-17 21:10:00,
2013-05-17 16:15:00,60.3,53.8,29.93,ESE,102,7.0,14.0,79,0.00,,SKC,0.00,VWS V14.01,2013-05-17 21:15:00,
2013-05-17 16:20:00,59.9,53.7,29.93,ESE,115,6.0,14.0,80,0.00,,SKC,0.00,VWS V14.01,2013-05-17 21:20:00,
2013-05-17 16:25:00,59.6,53.8,29.93,East,94,6.0,15.0,81,0.00,,SKC,0.00,VWS V14.01,2013-05-17 21:25:00,
2013-05-17 16:30:00,59.3,53.8,29.93,East,84,8.0,16.0,82,0.00,,SKC,0.00,VWS V14.01,2013-05-17 21:30:00,
2013-05-17 16:35:00,58.9,54.4,29.93,ESE,109,4.0,16.0,85,0.00,,SKC,0.00,VWS V14.01,2013-05-17 21:35:00,
2013-05-17 16:40:00,58.5,54.3,29.93,SE,126,8.0,16.0,86,0.01,,SKC,0.01,VWS V14.01,2013-05-17 21:40:00,
2013-05-17 16:45:00,58.1,54.3,29.93,ESE,117,5.0,16.0,87,0.01,,SKC,0.01,VWS V14.01,2013-05-17 21:45:00,
2013-05-17 16:50:00,58.0,54.8,29.93,East,84,4.0,16.0,89,0.01,,SKC,0.01,VWS V14.01,2013-05-17 21:50:00,
2013-05-17 16:55:00,57.8,54.6,29.92,ESE,107,6.0,16.0,89,0.01,,SKC,0.01,VWS V14.01,2013-05-17 21:55:00,
2013-05-17 17:00:00,57.8,54.6,29.93,East,92,5.0,6.0,89,0.01,,SKC,0.01,VWS V14.01,2013-05-17 22:00:00,
2013-05-17 17:05:00,57.8,54.9,29.92,ENE,76,6.0,12.0,90,0.01,,SKC,0.01,VWS V14.01,2013-05-17 22:05:00,
2013-05-17 17:10:00,57.7,54.8,29.92,East,82,8.0,13.0,90,0.01,,SKC,0.01,VWS V14.01,2013-05-17 22:10:00,
2013-05-17 17:15:00,57.7,54.8,29.93,ESE,118,4.0,13.0,90,0.01,,SKC,0.01,VWS V14.01,2013-05-17 22:15:00,
2013-05-17 17:20:00,57.7,54.8,29.93,East,84,5.0,13.0,90,0.01,,SKC,0.01,VWS V14.01,2013-05-17 22:20:00,
2013-05-17 17:25:00,57.6,54.7,29.93,East,91,9.0,13.0,90,0.01,,SKC,0.01,VWS V14.01,2013-05-17 22:25:00,
2013-05-17 17:30:00,57.5,54.6,29.93,East,86,4.0,8.0,90,0.01,,SKC,0.01,VWS V14.01,2013-05-17 22:30:00,
2013-05-17 17:35:00,57.6,55.0,29.93,ESE,116,6.0,10.0,91,0.01,,SKC,0.01,VWS V14.01,2013-05-17 22:35:00,
2013-05-17 17:40:00,57.6,55.0,29.93,East,80,4.0,12.0,91,0.01,,SKC,0.01,VWS V14.01,2013-05-17 22:40:00,
2013-05-17 17:45:00,57.6,55.0,29.93,East,88,1.0,12.0,91,0.01,,SKC,0.01,VWS V14.01,2013-05-17 22:45:00,
2013-05-17 17:50:00,57.7,55.1,29.93,East,96,6.0,12.0,91,0.01,,SKC,0.01,VWS V14.01,2013-05-17 22:50:00,
2013-05-17 17:55:00,57.7,54.8,29.93,ESE,108,7.0,12.0,90,0.01,,SKC,0.01,VWS V14.01,2013-05-17 22:55:00,
2013-05-17 18:00:00,57.8,54.9,29.93,ESE,103,8.0,11.0,90,0.00,,SKC,0.01,VWS V14.01,2013-05-17 23:00:00,
2013-05-17 18:05:00,57.8,54.9,29.93,East,101,7.0,11.0,90,0.00,,SKC,0.01,VWS V14.01,2013-05-17 23:05:00,
2013-05-17 18:10:00,57.9,55.0,29.92,East,96,4.0,12.0,90,0.00,,SKC,0.01,VWS V14.01,2013-05-17 23:10:00,
2013-05-17 18:15:00,57.9,55.0,29.92,East,90,6.0,12.0,90,0.00,,SKC,0.01,VWS V14.01,2013-05-17 23:15:00,
2013-05-17 18:20:00,58.0,55.1,29.92,East,94,6.0,12.0,90,0.00,,SKC,0.01,VWS V14.01,2013-05-17 23:20:00,
2013-05-17 18:25:00,58.0,55.1,29.92,ESE,121,8.0,12.0,90,0.00,,SKC,0.01,VWS V14.01,2013-05-17 23:25:00,
2013-05-17 18:30:00,57.9,54.7,29.92,ESE,102,4.0,7.0,89,0.00,,SKC,0.01,VWS V14.01,2013-05-17 23:30:00,
2013-05-17 18:35:00,57.9,54.7,29.92,ESE,109,4.0,13.0,89,0.00,,SKC,0.01,VWS V14.01,2013-05-17 23:35:00,
2013-05-17 18:40:00,58.0,54.8,29.92,ESE,103,0.0,13.0,89,0.00,,SKC,0.01,VWS V14.01,2013-05-17 23:40:00,
2013-05-17 18:45:00,58.0,54.8,29.92,East,86,5.0,13.0,89,0.00,,SKC,0.01,VWS V14.01,2013-05-17 23:45:00,
2013-05-17 18:50:00,58.1,54.9,29.92,ESE,107,4.0,13.0,89,0.00,,SKC,0.01,VWS V14.01,2013-05-17 23:50:00,
2013-05-17 18:55:00,58.2,54.7,29.92,East,94,5.0,13.0,88,0.00,,SKC,0.01,VWS V14.01,2013-05-17 23:55:00,
2013-05-17 19:00:00,58.2,54.7,29.92,East,88,6.0,7.0,88,0.00,,SKC,0.01,VWS V14.01,2013-05-18 00:00:00,
2013-05-17 19:05:00,58.2,55.0,29.92,East,82,4.0,9.0,89,0.00,,SKC,0.01,VWS V14.01,2013-05-18 00:05:00,
2013-05-17 19:10:00,58.2,54.7,29.92,ESE,118,5.0,9.0,88,0.00,,SKC,0.01,VWS V14.01,2013-05-18 00:10:00,
2013-05-17 19:15:00,58.2,54.7,29.92,ESE,113,15.0,15.0,88,0.00,,SKC,0.01,VWS V14.01,2013-05-18 00:15:00,
2013-05-17 19:20:00,58.2,54.7,29.92,East,96,6.0,15.0,88,0.00,,SKC,0.01,VWS V14.01,2013-05-18 00:20:00,
2013-05-17 19:25:00,58.2,54.7,29.92,East,92,6.0,15.0,88,0.00,,SKC,0.01,VWS V14.01,2013-05-18 00:25:00,
2013-05-17 19:30:00,58.1,54.6,29.92,ESE,113,7.0,7.0,88,0.00,,SKC,0.01,VWS V14.01,2013-05-18 00:30:00,
2013-05-17 19:35:00,58.1,54.6,29.92,East,93,6.0,11.0,88,0.00,,SKC,0.01,VWS V14.01,2013-05-18 00:35:00,
2013-05-17 19:40:00,58.0,54.5,29.92,ENE,68,6.0,12.0,88,0.00,,SKC,0.01,VWS V14.01,2013-05-18 00:40:00,
2013-05-17 19:45:00,58.0,54.5,29.92,East,90,6.0,12.0,88,0.00,,SKC,0.01,VWS V14.01,2013-05-18 00:45:00,
2013-05-17 19:50:00,58.0,54.5,29.92,East,98,4.0,12.0,88,0.00,,SKC,0.01,VWS V14.01,2013-05-18 00:50:00,
2013-05-17 19:55:00,58.0,54.5,29.91,ESE,104,2.0,12.0,88,0.00,,SKC,0.01,VWS V14.01,2013-05-18 00:55:00,
2013-05-17 20:00:00,58.0,54.5,29.91,East,84,2.0,5.0,88,0.00,,SKC,0.01,VWS V14.01,2013-05-18 01:00:00,
2013-05-17 20:05:00,57.9,54.4,29.92,ESE,122,8.0,12.0,88,0.00,,SKC,0.01,VWS V14.01,2013-05-18 01:05:00,
2013-05-17 20:10:00,57.9,54.4,29.92,East,94,4.0,12.0,88,0.00,,SKC,0.01,VWS V14.01,2013-05-18 01:10:00,
2013-05-17 20:15:00,57.9,54.4,29.91,ENE,73,6.0,12.0,88,0.00,,SKC,0.01,VWS V14.01,2013-05-18 01:15:00,
2013-05-17 20:20:00,57.9,54.4,29.91,ESE,120,7.0,12.0,88,0.00,,SKC,0.01,VWS V14.01,2013-05-18 01:20:00,
2013-05-17 20:25:00,57.7,54.2,29.91,East,82,6.0,12.0,88,0.00,,SKC,0.01,VWS V14.01,2013-05-18 01:25:00,
2013-05-17 20:30:00,57.6,54.1,29.91,ESE,111,5.0,11.0,88,0.00,,SKC,0.01,VWS V14.01,2013-05-18 01:30:00,
2013-05-17 20:35:00,57.5,54.0,29.91,East,81,11.0,13.0,88,0.00,,SKC,0.01,VWS V14.01,2013-05-18 01:35:00,
2013-05-17 20:40:00,57.4,53.9,29.91,SE,135,5.0,13.0,88,0.00,,SKC,0.01,VWS V14.01,2013-05-18 01:40:00,
2013-05-17 20:45:00,57.4,53.9,29.91,East,83,7.0,13.0,88,0.00,,SKC,0.01,VWS V14.01,2013-05-18 01:45:00,
2013-05-17 20:50:00,57.4,53.9,29.91,East,88,3.0,13.0,88,0.00,,SKC,0.01,VWS V14.01,2013-05-18 01:50:00,
2013-05-17 20:55:00,57.4,53.9,29.91,ESE,121,1.0,13.0,88,0.00,,SKC,0.01,VWS V14.01,2013-05-18 01:55:00,
2013-05-17 21:00:00,57.4,54.2,29.92,ESE,107,4.0,6.0,89,0.00,,SKC,0.01,VWS V14.01,2013-05-18 02:00:00,
2013-05-17 21:05:00,57.4,54.2,29.92,East,86,4.0,7.0,89,0.00,,SKC,0.01,VWS V14.01,2013-05-18 02:05:00,
2013-05-17 21:10:00,57.3,54.1,29.92,East,101,2.0,12.0,89,0.00,,SKC,0.01,VWS V14.01,2013-05-18 02:10:00,
2013-05-17 21:15:00,57.3,54.1,29.92,East,89,0.0,12.0,89,0.00,,SKC,0.01,VWS V14.01,2013-05-18 02:15:00,
2013-05-17 21:21:00,57.2,54.0,29.92,East,96,1.0,12.0,89,0.00,,SKC,0.01,VWS V14.01,2013-05-18 02:21:00,
2013-05-17 21:26:00,57.1,53.9,29.92,East,80,11.0,12.0,89,0.00,,SKC,0.01,VWS V14.01,2013-05-18 02:26:00,
2013-05-17 21:30:00,57.1,53.6,29.91,East,82,6.0,12.0,88,0.00,,SKC,0.01,VWS V14.01,2013-05-18 02:30:00,
2013-05-17 21:32:00,57.0,53.5,29.92,SE,129,7.0,12.0,88,0.00,,SKC,0.01,VWS V14.01,2013-05-18 02:32:00,
2013-05-17 21:37:00,56.9,53.4,29.92,ESE,118,5.0,12.0,88,0.00,,SKC,0.01,VWS V14.01,2013-05-18 02:37:00,
2013-05-17 21:42:00,56.9,53.7,29.92,East,95,4.0,14.0,89,0.00,,SKC,0.01,VWS V14.01,2013-05-18 02:42:00,
2013-05-17 21:47:00,56.9,53.7,29.92,ENE,78,2.0,14.0,89,0.00,,SKC,0.01,VWS V14.01,2013-05-18 02:47:00,
2013-05-17 21:52:00,56.7,53.5,29.92,East,94,7.0,14.0,89,0.00,,SKC,0.01,VWS V14.01,2013-05-18 02:52:00,
2013-05-17 21:57:00,56.7,53.5,29.92,East,92,13.0,14.0,89,0.00,,SKC,0.01,VWS V14.01,2013-05-18 02:57:00,
2013-05-17 22:02:00,56.6,53.4,29.93,East,86,5.0,14.0,89,0.00,,SKC,0.01,VWS V14.01,2013-05-18 03:02:00,
2013-05-17 22:07:00,56.5,53.3,29.92,ENE,74,8.0,14.0,89,0.00,,SKC,0.01,VWS V14.01,2013-05-18 03:07:00,
2013-05-17 22:15:00,56.4,54.0,29.93,East,90,4.0,-999.0,90,-99.99,,,0.01,weatherlink.com 1.10,2013-05-18 03:15:00,
2013-05-17 22:21:00,56.3,53.4,29.93,East,89,5.0,14.0,90,0.00,,SKC,0.01,VWS V14.01,2013-05-18 03:21:00,
2013-05-17 22:26:00,56.2,53.3,29.93,ESE,107,6.0,14.0,90,0.00,,SKC,0.01,VWS V14.01,2013-05-18 03:26:00,
2013-05-17 22:30:00,56.2,53.3,29.93,East,88,3.0,14.0,90,0.00,,SKC,0.01,VWS V14.01,2013-05-18 03:30:00,
2013-05-17 22:31:00,56.2,53.3,29.93,East,94,5.0,11.0,90,0.00,,SKC,0.01,VWS V14.01,2013-05-18 03:31:00,
2013-05-17 22:36:00,56.1,53.8,29.93,ESE,109,11.0,13.0,92,0.00,,SKC,0.01,VWS V14.01,2013-05-18 03:36:00,
2013-05-17 22:41:00,56.1,52.9,29.94,SE,136,6.0,13.0,89,0.00,,SKC,0.01,VWS V14.01,2013-05-18 03:41:00,
2013-05-17 22:46:00,56.0,52.8,29.93,East,95,7.0,13.0,89,0.00,,SKC,0.01,VWS V14.01,2013-05-18 03:46:00,
2013-05-17 22:52:00,56.0,52.8,29.93,East,99,5.0,13.0,89,0.00,,SKC,0.01,VWS V14.01,2013-05-18 03:52:00,
2013-05-17 22:57:00,55.9,52.7,29.93,ESE,117,4.0,13.0,89,0.00,,SKC,0.01,VWS V14.01,2013-05-18 03:57:00,
2013-05-17 23:01:00,55.9,52.7,29.93,East,88,6.0,13.0,89,0.00,,SKC,0.01,VWS V14.01,2013-05-18 04:01:00,
2013-05-17 23:06:00,55.8,52.6,29.93,ESE,107,4.0,13.0,89,0.00,,SKC,0.01,VWS V14.01,2013-05-18 04:06:00,
2013-05-17 23:12:00,55.8,52.6,29.92,ESE,121,9.0,13.0,89,0.00,,SKC,0.01,VWS V14.01,2013-05-18 04:12:00,
2013-05-17 23:17:00,55.8,52.6,29.93,East,94,8.0,13.0,89,0.00,,SKC,0.01,VWS V14.01,2013-05-18 04:17:00,
2013-05-17 23:22:00,55.7,52.5,29.93,ESE,103,4.0,13.0,89,0.00,,SKC,0.01,VWS V14.01,2013-05-18 04:22:00,
2013-05-17 23:27:00,55.7,52.5,29.93,East,94,4.0,13.0,89,0.00,,SKC,0.01,VWS V14.01,2013-05-18 04:27:00,
2013-05-17 23:30:00,55.7,52.5,29.94,East,86,6.0,13.0,89,0.00,,SKC,0.01,VWS V14.01,2013-05-18 04:30:00,
2013-05-17 23:33:00,55.6,52.4,29.93,East,86,3.0,7.0,89,0.00,,SKC,0.01,VWS V14.01,2013-05-18 04:33:00,
2013-05-17 23:37:00,55.6,52.4,29.93,East,88,4.0,11.0,89,0.00,,SKC,0.01,VWS V14.01,2013-05-18 04:37:00,
2013-05-17 23:38:00,55.6,52.4,29.93,East,88,4.0,11.0,89,0.00,,SKC,0.01,VWS V14.01,2013-05-18 04:38:00,
2013-05-17 23:43:00,55.6,52.4,29.93,East,88,4.0,11.0,89,0.00,,SKC,0.01,VWS V14.01,2013-05-18 04:43:00,
2013-05-17 23:53:00,55.4,52.0,29.93,East,83,3.0,-999.0,89,-99.99,,,0.01,weatherlink.com 1.10,2013-05-18 04:53:00,